BLOCK DM-SL R/B, 28365

Orbit data source: Space-Track

BLOCK DM-SL R/B, 28365 is space debris in HEO originally from a launch on Tue, 29 Jun 2004 UTC launched from the Sea Launch (SEAL). Debris objects in space refer to the collection of defunct objects orbiting the Earth. Examples of debris include non-operational satellites, rocket bodies, and fragments generated from explosions, collisions, or faulty payload assembly.

Loading next visibility...
Identifier
28365, 2004-024B
Orbit
HEO
Country
Flag of USUS / SEAL
Related business
Manufacturer
RKKE
Mission
Spacecraft
Bus & Motor
BLOK DM2, 11D58M
Mass
~3,210 kg wet, 3,210 kg dry
Launch date (UTC)
2004-06-29 (22 years ago)
Launch vehicle
Unknown
Launch site
Sea Launch (SEAL)
Object type
Payload
Rocket body
Debris
Shape & HBR
Cyl, 3.1 m
Radar Cross Section
23.684 m², Large (>1 m²)

Expand to show TLE details & history
Last TLE update: 8 hours ago

TLE from 8 hours ago
0 BLOCK DM-SL R/B
1 28365U 04024B   26127.93477455 -.00000072  00000-0 -22935-3 0  9991
2 28365   0.1625 322.9267 5969933 222.6352 345.1036  3.73389739298224
Epoch: 2026-05-07T22:26Z
TLE epoch observation values (Epoch: 2026-05-07T22:26:04.521Z)
Latitude
0.05552°
Longitude
-79.69418°
Altitude
2,507.859 km
Speed
8.185 km/s
True Right ascension
08h 10m 23s
True Declination
0° 03' 19"
Sunlit
Object was in daylight at epoch
Visualization orbit readout
Latitude
Unknown
Longitude
Unknown
Altitude
Unknown
Speed
Unknown
Apparent Right ascension
Unknown
Apparent Declination
Unknown
Sunlit
N/A
Visualization observer readout
Local Sidereal Time
14:26:25
Azimuth
Unknown
Elevation
Unknown
Doppler factor
Unknown
Orbital elements
Apogee altitude
21,657.938 km
Perigee altitude
696.862 km
Semi-major axis
17,555.537 km
Eccentricity
0.59699
Inclination
0.1625°
RAAN
322.9267°
Arg. of periapsis
222.6352°
True anomaly
297.27582°
Mean anomaly
345.1036°
Eccentric anomaly
325.95308°
Mean motion
0.93309 °/min
Orbital period
385.82 mins
BSTAR
-0.00022935
Loading maneuver chart data...
Computing Atmospheric mass density...
Loading historical data...
Loading historical data...
Loading historical data...
Loading historical data...
Loading historical data...
Loading historical data...
Loading historical data...
Other satellites on launch #24 in the year 2004 (2004-06-29 UTC)

Documentation

Showing up to 5 results
|